Lapse_Rate
1.6 1.5 1.4 1.4 1.1 0.9 0.8 0.6 0.6 0.5 0.6 0.8 0.9 0.7 0.8 1.0 0.8 5.8 8.6 8.2 7.9 5.8 5.6 9.1 9.2 9.0 9.0 8.2 8.4 8.2 6.5 6.5 6.5 6.5 6.5 7.1 6.6 7.6 8.1 7.5 7.8 8.1 8.0 8.5 9.0
2.4 2.2 1.9 1.7 1.4 1.0 0.6 0.5 0.6 0.7 0.7 0.8 0.8 0.7 0.5 1.0 6.0 8.9 7.0 5.8 5.5 5.5 8.3 8.6 8.2 8.5 7.7 7.7 7.8 6.9 6.5 6.5 6.5 6.5 6.5 6.8 6.9 7.1 7.0 7.1 7.2 7.6 8.5 8.8 9.0
3.0 2.7 2.4 2.1 1.7 1.2 0.8 0.3 0.4 0.8 1.1 0.9 0.3 0.2 0.2 1.4 8.2 8.6 5.2 5.3 5.5 6.3 9.6 9.3 8.9 8.2 7.2 7.6 7.3 6.9 6.5 6.5 6.7 7.1 7.2 6.9 6.9 7.5 6.9 6.5 7.2 7.1 7.8 8.4 8.6
2.8 2.7 2.5 2.2 1.9 1.7 1.3 0.7 0.4 0.5 0.8 0.7 0.4 0.4 0.4 5.8 6.5 9.0 5.1 5.1 5.6 9.3 9.4 8.8 8.3 7.3 6.7 6.5 7.4 6.5 6.9 6.9 7.0 7.3 7.1 6.6 7.4 6.9 7.2 7.1 8.0 8.1 8.3 8.4 8.4
3.2 2.6 2.4 2.1 1.9 1.7 1.4 1.2 0.9 0.8 0.5 0.1 0.6 0.7 4.3 8.2 8.1 6.8 4.8 5.3 8.0 9.2 8.8 8.3 7.7 7.4 6.5 6.7 7.0 6.5 6.6 7.1 7.4 7.3 7.3 7.5 6.9 6.8 7.1 7.9 8.3 8.3 8.3 8.2 8.4
4.0 3.7 3.1 2.5 2.0 1.6 1.5 1.3 1.0 0.7 0.2 -0.1 0.5 0.7 6.6 7.0 9.5 8.6 8.1 8.0 9.5 9.2 8.8 8.6 8.0 8.1 7.2 6.8 6.6 7.0 6.9 7.0 7.2 7.2 7.3 6.7 6.8 7.1 7.4 8.1 8.0 8.1 8.1 8.3 8.4
5.4 3.9 3.5 3.1 2.5 1.9 1.6 1.2 0.8 0.2 0.0 0.2 0.7 4.3 8.5 8.0 9.8 9.8 9.8 9.4 9.6 9.3 8.5 8.9 8.8 7.9 7.7 6.5 7.6 7.2 6.5 6.5 6.7 7.0 6.6 7.2 6.5 6.5 7.7 7.8 7.7 7.8 8.2 8.2 8.4
5.3 5.4 3.4 2.5 2.9 2.7 1.9 1.2 0.6 0.1 0.7 1.1 1.0 6.8 7.8 8.3 9.7 9.7 9.8 9.5 9.7 9.6 9.2 9.2 9.1 8.2 7.6 7.7 7.0 6.5 6.5 6.5 6.5 6.6 6.9 6.8 6.5 6.5 7.6 7.5 7.4 7.7 8.0 8.0 8.3
4.5 4.5 4.5 3.2 2.6 2.0 1.2 1.0 0.6 1.1 1.4 1.9 5.6 8.7 7.4 5.2 8.3 9.5 9.8 8.9 9.2 9.3 9.2 9.3 8.7 7.6 7.4 6.5 6.5 6.5 6.5 6.5 6.5 6.7 6.5 6.5 6.5 6.5 7.5 7.4 7.2 7.6 7.8 7.9 8.1
4.4 3.8 3.7 3.3 2.8 2.4 1.2 1.1 2.3 1.6 3.6 6.9 9.3 7.9 8.4 7.9 8.9 9.3 9.8 9.4 8.6 8.5 8.1 8.0 7.6 6.5 6.5 6.5 6.5 6.5 6.5 6.5 6.5 6.5 6.5 6.5 6.5 6.5 7.2 7.2 7.2 7.5 7.6 7.8 8.0
4.5 3.8 3.5 3.2 2.7 2.4 3.1 8.2 7.9 8.0 8.8 7.8 7.7 7.7 8.0 8.9 9.4 8.9 9.4 8.8 8.6 7.9 6.5 7.2 6.5 6.5 6.5 6.5 6.5 6.5 6.5 6.5 6.5 6.5 6.5 6.5 6.5 6.5 6.8 7.0 7.0 7.3 7.5 7.7 8.0
4.7 4.1 3.3 2.9 2.9 2.5 4.9 8.6 8.4 7.6 7.2 8.4 8.4 8.3 8.7 8.9 7.6 8.4 9.3 7.7 7.3 6.5 6.7 6.5 6.5 6.5 6.5 6.5 6.5 6.5 6.5 6.5 6.5 6.5 6.5 6.5 6.5 6.5 6.5 6.7 7.0 7.1 7.4 7.6 8.0
5.5 4.8 4.0 2.7 2.7 6.2 8.6 7.7 8.4 9.4 7.2 7.5 8.2 8.1 8.1 8.6 7.5 7.7 8.5 7.9 6.6 6.5 6.5 6.5 6.5 6.5 6.5 6.5 6.5 6.5 6.5 6.5 6.5 6.5 6.5 6.5 6.5 6.5 6.5 6.9 7.2 7.5 7.6 7.8 7.9
5.8 5.3 4.6 2.9 6.2 7.5 8.7 8.2 9.3 9.6 6.5 6.5 6.8 7.6 8.3 8.2 6.8 8.6 8.7 7.8 6.7 6.5 6.5 6.5 6.6 6.5 6.5 6.5 6.5 6.5 6.5 6.5 6.5 6.5 6.5 6.5 6.5 6.5 6.5 6.5 6.5 7.0 7.3 7.6 7.8
6.4 6.0 4.8 4.4 7.0 7.9 8.5 7.5 7.8 9.1 6.5 6.5 6.8 8.8 8.2 7.3 7.2 7.4 8.7 7.8 6.5 6.5 6.5 6.5 6.5 6.5 6.5 6.5 6.5 6.5 6.5 6.5 6.5 6.5 6.5 6.5 6.5 6.5 6.5 6.5 6.5 6.7 7.2 7.6 7.9
6.6 6.4 5.5 8.7 9.2 9.2 7.6 7.2 8.5 6.5 6.5 6.5 6.8 6.6 6.5 7.0 7.0 7.4 7.5 8.2 7.7 6.5 6.5 6.5 7.0 6.5 6.5 6.5 6.5 6.5 6.5 6.5 6.5 6.5 6.5 6.5 6.5 6.5 6.5 6.5 6.5 6.7 7.3 7.6 7.8
7.0 6.3 6.3 7.5 8.7 8.0 7.2 8.2 6.5 6.5 6.5 6.5 6.5 6.5 6.5 6.5 6.5 6.5 6.5 6.5 6.5 6.5 6.5 6.5 6.5 6.5 6.7 6.5 6.5 6.5 6.5 6.5 6.5 6.5 6.5 6.5 6.5 6.5 6.5 6.5 6.5 6.5 7.2 7.6 7.9
7.5 6.3 7.8 7.8 8.1 8.9 8.3 6.6 6.5 6.5 6.5 6.5 6.5 6.5 6.5 6.5 6.5 6.5 6.5 6.5 6.5 6.5 6.5 6.5 6.5 6.5 6.5 6.5 6.5 6.5 6.5 6.5 6.5 6.5 6.5 6.5 6.5 6.5 6.5 6.8 7.2 7.3 7.5 7.7 7.7
7.8 9.4 9.4 9.4 8.9 8.8 7.8 6.5 6.5 6.5 6.5 6.5 6.5 6.5 6.5 6.5 6.5 6.5 6.5 6.5 6.5 6.5 6.5 6.5 6.5 6.5 6.5 6.5 6.5 6.5 6.5 6.5 6.5 6.5 6.5 6.5 6.5 6.5 6.5 6.5 6.8 7.0 7.3 7.4 7.7
9.4 9.3 9.1 9.7 9.2 9.1 6.8 6.5 6.5 6.6 6.5 6.5 6.5 6.5 6.5 6.5 6.5 6.5 6.5 6.5 6.5 6.5 6.5 6.5 6.5 6.5 6.5 6.6 6.6 6.5 6.5 6.5 6.5 6.5 6.5 6.5 6.5 6.5 6.5 6.5 6.5 6.5 7.0 7.4 7.7
9.2 8.1 9.4 9.7 9.9 7.8 6.5 6.5 6.5 7.3 7.2 6.5 6.5 6.5 6.5 6.5 6.5 6.5 6.5 6.5 6.5 6.5 6.5 6.5 6.5 6.5 6.5 6.5 6.5 6.5 6.5 6.5 6.5 6.5 6.5 6.5 6.5 6.5 6.5 6.5 6.5 6.5 7.2 7.5 7.6
8.3 6.5 9.6 9.9 7.1 7.1 6.5 6.5 6.8 6.7 7.3 6.5 6.5 6.5 6.5 6.5 6.5 6.5 6.5 6.5 6.8 6.5 6.5 6.5 6.5 6.5 6.5 6.5 6.5 6.5 6.5 6.5 6.5 6.5 6.5 6.5 6.5 6.5 6.5 6.5 6.7 6.9 7.4 7.7 7.9
6.9 7.5 9.5 9.0 6.5 6.5 6.6 6.5 6.9 6.5 6.5 6.5 6.5 6.5 6.5 6.5 6.5 6.5 6.5 6.6 6.6 6.5 6.5 6.5 6.5 6.5 6.5 6.5 6.5 6.5 6.5 6.5 6.5 6.5 6.5 6.5 6.5 6.5 6.5 6.5 7.0 7.0 7.5 7.7 7.9
6.2 6.5 7.7 8.2 8.0 6.6 6.5 6.5 6.5 7.2 6.6 6.8 6.5 6.7 6.5 6.5 6.5 6.5 6.5 6.5 6.9 6.6 5.9 6.2 6.5 6.5 6.5 6.5 6.5 6.5 6.5 6.5 6.5 6.5 6.5 6.5 6.5 6.5 6.5 6.5 6.6 7.1 7.5 7.7 7.9
6.7 6.8 7.3 6.5 6.6 6.5 6.5 6.5 6.5 6.5 6.9 7.1 6.5 6.5 6.5 6.5 6.5 6.5 6.5 6.5 6.6 6.8 6.5 6.5 6.5 6.5 6.5 6.5 6.5 6.5 6.5 6.5 6.5 6.5 6.5 6.5 6.5 6.5 6.5 6.5 6.8 7.3 7.5 7.6 7.7
6.5 6.6 7.5 7.2 7.2 6.5 6.5 6.5 6.5 6.5 6.5 6.5 6.5 6.5 6.5 6.5 6.5 6.5 6.5 6.5 6.5 6.5 6.5 6.5 6.5 6.5 6.5 6.5 6.5 6.5 6.5 6.5 6.5 6.5 6.5 6.5 6.5 6.5 6.8 7.2 7.0 7.3 7.4 7.4 7.7
6.9 6.2 6.7 6.8 6.5 6.5 6.5 6.5 6.5 6.5 6.9 7.1 6.6 6.5 6.5 6.5 7.1 7.2 7.1 7.2 6.6 6.5 6.5 6.5 6.5 6.5 6.5 6.5 6.5 6.5 6.5 6.5 6.5 6.5 6.5 6.5 6.5 6.5 6.5 6.5 6.9 7.2 7.4 7.5 7.7
Wind_Speed
12 12 13 14 15 16 19 19 19 17 16 15 15 15 16 17 19 8 10 4 6 11 4 5 7 4 4 3 5 3 6 7 7 6 3 5 6 6 2 8 5 3 7 8 5
15 15 14 14 15 16 16 19 20 19 19 16 14 14 13 15 14 15 8 13 15 12 7 8 5 6 4 3 4 6 7 6 6 4 4 2 6 6 4 8 8 6 4 2 5
16 17 17 18 18 17 16 16 17 20 20 20 16 13 14 12 13 12 21 17 13 11 5 8 4 6 6 4 7 5 8 4 4 6 4 6 7 8 8 9 8 4 3 1 3
15 17 18 19 19 20 19 19 17 17 19 20 18 14 13 8 4 5 14 15 11 9 7 6 6 7 5 8 6 8 9 6 2 1 4 9 9 8 11 11 2 3 2 3 5
14 14 17 19 20 22 22 22 21 20 18 16 16 12 7 8 10 14 13 13 10 7 8 7 9 8 11 7 7 12 10 6 7 6 8 10 12 13 13 10 6 5 6 6 6
12 12 13 15 19 21 23 23 24 24 21 14 10 7 8 13 5 14 14 11 10 10 8 8 8 7 9 9 9 5 8 10 8 10 11 11 13 13 12 13 10 9 10 9 7
18 19 18 17 18 20 23 24 25 26 20 10 7 6 10 12 2 13 13 13 9 9 8 8 5 8 2 9 10 10 12 12 13 13 11 6 15 17 16 9 13 13 11 9 8
20 20 20 23 22 22 25 26 25 21 12 6 5 9 7 3 6 11 13 11 8 6 6 3 5 7 7 3 8 10 12 11 4 5 7 7 15 10 7 9 14 14 12 9 10
21 21 23 24 25 26 26 28 24 9 5 5 6 9 9 3 10 13 15 13 11 6 5 4 5 7 5 10 10 11 12 8 6 8 8 10 11 6 4 9 13 14 12 10 10
20 21 24 25 26 27 30 30 4 4 6 6 7 6 8 8 10 15 15 13 12 9 7 9 6 9 10 11 11 8 10 9 8 5 9 14 17 16 14 10 13 13 10 11 11
21 22 24 26 27 28 18 6 4 6 9 12 4 13 1 4 5 14 17 14 13 13 14 13 10 14 15 14 16 13 13 15 13 6 8 16 16 14 10 12 11 11 9 9 12
19 22 24 29 30 27 10 5 7 6 11 16 21 21 15 6 9 15 19 17 16 18 16 10 15 17 13 8 9 12 16 16 13 5 8 16 18 15 13 10 9 4 6 9 11
18 21 26 31 30 11 6 6 9 6 8 15 23 23 21 20 16 19 24 23 20 19 19 18 8 3 12 12 13 15 15 15 15 11 13 17 22 15 7 6 5 6 3 5 8
16 18 24 35 10 10 1 11 13 5 7 12 8 8 18 14 15 21 25 22 16 20 19 15 20 12 10 14 11 14 13 11 12 8 8 2 7 6 12 10 9 4 1 4 5
12 16 19 21 10 7 10 16 14 4 8 10 9 3 4 18 8 20 21 23 22 18 14 9 11 13 16 18 15 14 0 5 8 10 14 16 7 9 10 10 11 4 2 4 4
12 12 17 10 7 7 17 17 6 6 13 5 6 7 8 19 11 3 18 23 16 20 17 20 0 10 13 5 9 5 5 6 8 8 9 18 12 6 10 10 8 5 6 5 3
11 11 13 13 6 15 14 6 6 10 2 7 6 7 14 15 20 12 20 24 15 17 21 19 20 9 8 8 5 10 7 3 5 5 4 4 5 13 8 6 6 8 8 6 4
13 13 12 14 14 12 6 5 14 11 23 1 1 5 10 12 19 17 18 23 27 20 10 18 11 24 18 20 9 17 15 5 5 4 2 2 7 2 6 9 9 7 7 7 4
11 10 7 7 9 5 6 12 11 14 16 20 17 20 16 16 9 19 23 24 25 27 16 11 12 6 6 16 16 11 13 13 13 11 6 7 10 5 9 11 10 10 9 8 6
8 9 12 12 9 7 9 23 18 16 15 9 15 13 16 19 14 12 15 14 25 26 22 11 8 10 6 7 10 10 10 7 6 4 6 8 10 6 15 15 13 12 12 11 7
8 7 6 12 10 7 12 16 20 25 23 8 14 18 19 20 20 19 11 15 19 19 21 19 12 7 9 14 16 10 12 8 5 9 4 5 3 7 14 16 15 14 13 12 11
6 5 8 10 11 10 14 19 12 25 19 17 7 19 21 22 19 21 25 19 13 12 22 26 12 12 17 1 17 20 18 18 7 9 8 9 3 4 11 12 13 13 13 12 11
5 8 7 11 10 11 17 22 23 23 21 20 20 17 15 19 21 17 19 13 3 10 12 13 14 13 13 7 7 12 20 20 19 11 12 8 1 4 10 11 12 14 14 13 13
3 4 8 8 13 20 21 22 22 19 18 7 14 20 20 19 18 11 16 5 6 7 7 7 15 24 17 14 14 12 21 23 20 14 16 16 5 11 12 13 13 14 15 15 14
7 5 7 5 15 22 20 18 17 18 16 15 14 16 21 24 25 19 25 23 14 7 5 7 13 23 24 25 9 13 21 26 27 26 15 16 16 13 17 17 16 16 16 16 16
9 3 8 13 15 20 18 21 23 19 15 12 15 17 17 14 16 20 15 15 7 8 4 6 14 19 22 23 12 14 16 22 28 25 24 17 12 6 16 16 16 17 18 17 17
7 4 5 10 17 16 16 22 18 16 16 16 17 18 19 18 18 19 15 13 8 3 4 5 12 17 18 20 11 15 23 20 21 24 24 21 21 9 11 19 20 20 19 19 18
Wind_Direction
359 0 1 356 356 352 346 345 343 343 339 334 329 326 320 312 304 228 247 112 149 149 196 177 225 192 221 201 253 270 256 259 250 246 250 145 237 163 294 271 197 262 287 24 353
354 352 353 352 351 349 346 341 338 336 334 331 326 321 312 313 282 257 148 133 140 157 181 199 195 198 212 225 216 244 258 302 7 294 254 194 263 273 249 237 243 226 230 4 320
357 352 348 347 344 343 339 336 333 331 329 327 322 316 311 313 273 250 135 149 156 180 237 228 241 228 257 252 226 203 258 22 256 264 262 270 252 240 259 259 264 282 324 310 302
359 353 349 346 343 338 334 329 328 326 325 324 315 310 314 265 285 69 142 148 163 202 208 201 222 228 253 237 223 262 235 256 291 205 250 253 265 253 243 261 23 204 264 255 268
1 354 348 344 341 337 332 327 323 319 317 315 306 305 287 231 254 132 147 154 175 193 211 214 230 233 251 259 247 245 265 242 241 244 256 269 261 266 263 245 216 207 223 240 256
340 344 344 342 338 335 329 323 320 316 313 302 288 291 242 257 40 155 173 173 196 211 210 222 238 264 286 264 247 341 280 263 246 252 259 257 260 245 250 237 220 218 232 239 255
357 350 338 329 329 326 321 317 315 314 307 284 263 235 257 243 327 176 186 191 204 219 229 223 247 223 295 255 242 269 271 265 245 244 242 268 262 247 255 202 229 226 241 240 258
354 351 349 343 329 320 316 312 311 309 298 263 227 230 257 38 227 203 189 195 200 207 260 200 212 246 247 324 249 254 256 268 151 199 219 221 278 294 182 220 240 243 244 236 250
2 356 350 343 334 328 316 309 307 291 247 212 220 230 258 123 203 202 196 197 191 196 176 186 219 241 188 239 248 221 270 233 256 189 254 219 283 314 201 238 252 256 255 269 282
357 353 345 339 333 327 320 300 294 230 221 229 267 240 221 227 191 194 196 205 189 192 193 212 225 232 218 229 244 293 234 260 260 199 230 261 268 270 264 229 260 262 272 277 297
355 351 344 336 329 323 324 299 228 199 220 244 289 243 290 137 154 206 190 189 206 205 225 201 229 230 242 227 257 297 284 279 282 281 271 268 269 276 266 244 248 262 273 309 320
352 348 342 333 326 319 292 343 29 322 293 265 255 256 259 240 212 203 183 195 201 214 223 206 238 249 259 270 265 256 266 268 276 307 275 277 278 278 261 260 260 272 295 324 334
347 347 342 331 318 304 347 36 335 303 262 271 234 234 226 218 229 198 190 203 206 223 224 232 261 19 254 228 243 245 256 270 285 307 279 268 281 240 210 218 188 228 303 336 6
341 345 344 333 298 334 85 343 333 310 277 254 200 237 220 205 234 234 194 202 221 229 230 241 250 228 228 234 233 260 255 256 278 286 283 115 288 252 174 200 201 222 25 52 19
337 339 342 330 312 318 344 327 315 246 286 60 144 17 217 191 135 203 187 210 220 217 217 227 214 231 236 245 243 261 204 244 264 274 285 272 246 243 163 200 201 182 136 99 46
328 333 333 324 305 295 326 314 272 230 245 173 143 182 183 204 209 102 190 218 228 237 226 244 51 204 227 236 237 112 212 239 258 264 262 252 209 253 181 218 136 168 160 117 88
312 314 311 301 282 332 324 298 222 233 158 206 206 192 212 200 217 186 196 197 201 211 228 223 228 212 188 184 190 198 215 249 235 200 260 56 229 253 113 134 153 160 159 133 102
298 303 286 275 277 292 288 221 232 254 231 288 42 225 238 216 217 204 204 210 216 217 240 218 222 208 201 209 198 206 209 197 234 245 263 157 235 240 129 142 140 146 151 140 134
300 280 275 267 261 220 218 219 234 248 275 288 284 263 256 240 233 213 226 221 215 219 213 224 227 203 183 207 216 183 223 245 275 263 275 219 235 172 173 169 166 166 174 162 158
289 288 271 250 209 202 223 234 243 260 297 319 266 245 233 233 213 219 219 226 226 213 224 249 239 183 179 193 225 234 180 178 217 234 246 216 241 230 187 192 180 181 186 165 163
270 276 254 177 181 209 230 237 252 260 275 287 267 260 259 246 229 224 239 219 215 214 199 227 245 169 155 211 188 182 201 220 224 229 283 290 198 5 177 190 180 185 182 173 165
249 241 179 194 209 214 235 241 244 257 273 277 260 275 274 282 277 249 242 245 207 211 196 209 228 211 210 154 229 205 213 214 213 218 233 287 289 188 148 169 169 172 171 172 158
237 221 199 197 223 233 241 250 240 255 259 263 263 241 269 298 288 269 261 258 194 195 194 205 230 239 186 196 212 226 216 227 225 256 255 239 167 163 145 160 168 163 168 168 154
270 227 209 221 231 235 227 241 252 254 259 253 276 280 270 257 268 272 274 54 354 264 272 261 219 223 221 221 176 203 210 215 223 224 232 235 210 190 183 180 173 169 171 169 166
238 230 194 205 217 226 238 246 250 250 246 235 250 261 261 266 260 263 265 273 321 310 274 185 232 241 244 257 235 208 204 204 211 218 226 240 232 204 193 194 185 174 174 174 174
239 233 236 236 216 216 216 231 237 239 251 245 246 248 257 272 284 276 308 280 243 299 276 196 249 253 249 243 229 237 225 212 214 221 231 247 243 272 184 189 184 182 179 183 182
207 216 285 218 209 214 201 214 228 242 256 255 265 268 267 257 268 274 294 286 240 269 315 291 231 245 249 230 220 251 222 211 216 220 225 231 239 249 201 189 190 186 186 188 185